TimeCDT,TemperatureF,Dew PointF,Humidity,Sea Level PressureIn,VisibilityMPH,Wind Direction,Wind SpeedMPH,Gust SpeedMPH,PrecipitationIn,Events,Conditions,WindDirDegrees,DateUTC
12:52 AM,45.0,42.1,90,29.72,3.0,North,8.1,-,0.07,Rain,Rain,350,2013-04-18 05:52:00
1:04 AM,44.6,42.8,93,29.67,2.5,North,13.8,-,0.06,Rain-Thunderstorm,Rain,10,2013-04-18 06:04:00
1:14 AM,44.6,42.8,93,29.74,3.0,WNW,19.6,29.9,0.11,Rain,Rain,300,2013-04-18 06:14:00
1:33 AM,44.6,42.8,93,29.72,10.0,NNW,9.2,-,0.11,,Overcast,340,2013-04-18 06:33:00
1:52 AM,44.1,41.0,89,29.69,10.0,North,12.7,-,0.11,,Overcast,360,2013-04-18 06:52:00
2:23 AM,42.8,39.2,87,29.66,10.0,North,9.2,-,0.00,,Overcast,360,2013-04-18 07:23:00
2:52 AM,42.1,39.9,92,29.64,6.0,NNW,9.2,-,0.02,Rain,Light Rain,340,2013-04-18 07:52:00
3:10 AM,42.8,39.2,87,29.66,4.0,NNW,12.7,-,0.05,Rain-Thunderstorm,Light Rain,330,2013-04-18 08:10:00
3:19 AM,42.8,39.2,87,29.63,2.0,North,9.2,-,0.12,Rain,Rain,350,2013-04-18 08:19:00
3:27 AM,42.8,39.2,87,29.65,6.0,NNW,10.4,-,0.13,Rain,Light Rain,330,2013-04-18 08:27:00
3:52 AM,41.0,39.0,93,29.64,6.0,NNW,12.7,-,0.15,Rain,Rain,330,2013-04-18 08:52:00
4:24 AM,42.8,39.2,87,29.63,10.0,NNW,18.4,21.9,0.00,Thunderstorm,Overcast,340,2013-04-18 09:24:00
4:50 AM,41.0,37.4,87,29.61,10.0,North,16.1,-,0.00,Rain,Light Rain,350,2013-04-18 09:50:00
4:52 AM,41.0,37.9,89,29.61,10.0,North,16.1,-,0.00,Rain,Light Rain,350,2013-04-18 09:52:00
5:52 AM,39.9,37.0,89,29.66,4.0,NNW,17.3,-,0.01,Rain,Light Rain,330,2013-04-18 10:52:00
6:37 AM,39.2,37.4,93,29.66,3.0,NW,17.3,21.9,0.00,,Overcast,320,2013-04-18 11:37:00
6:52 AM,39.0,36.0,89,29.69,4.0,NW,13.8,24.2,0.00,,Overcast,320,2013-04-18 11:52:00
7:26 AM,39.2,37.4,93,29.66,2.0,NW,18.4,-,N/A,,Overcast,320,2013-04-18 12:26:00
7:35 AM,39.2,37.4,93,29.68,1.5,NW,16.1,-,N/A,,Overcast,320,2013-04-18 12:35:00
7:52 AM,39.0,36.0,89,29.70,1.5,NW,18.4,24.2,N/A,,Overcast,310,2013-04-18 12:52:00
8:13 AM,39.2,35.6,87,29.69,1.2,NW,17.3,23.0,N/A,,Overcast,310,2013-04-18 13:13:00
8:50 AM,37.4,35.6,93,29.70,2.0,NW,19.6,26.5,N/A,,Overcast,310,2013-04-18 13:50:00
8:52 AM,37.9,35.1,89,29.71,2.5,NW,18.4,26.5,N/A,,Overcast,320,2013-04-18 13:52:00
9:01 AM,37.4,35.6,93,29.70,5.0,NW,17.3,26.5,N/A,,Overcast,310,2013-04-18 14:01:00
9:44 AM,37.4,35.6,93,29.73,2.5,NW,20.7,28.8,N/A,,Overcast,310,2013-04-18 14:44:00
9:52 AM,37.9,35.1,89,29.74,2.5,NW,17.3,27.6,N/A,,Overcast,310,2013-04-18 14:52:00
10:00 AM,37.4,35.6,93,29.74,3.0,NW,19.6,28.8,N/A,,Overcast,310,2013-04-18 15:00:00
10:52 AM,39.0,34.0,82,29.77,10.0,NW,23.0,31.1,0.01,,Overcast,310,2013-04-18 15:52:00
11:14 AM,39.2,33.8,81,29.77,4.0,WNW,20.7,29.9,N/A,,Haze,300,2013-04-18 16:14:00
11:33 AM,37.4,33.8,87,29.78,5.0,NW,19.6,32.2,N/A,,Overcast,310,2013-04-18 16:33:00
11:40 AM,37.4,33.8,87,29.78,6.0,WNW,21.9,27.6,N/A,,Overcast,300,2013-04-18 16:40:00
11:52 AM,37.0,33.1,86,29.79,4.0,NW,26.5,32.2,N/A,,Overcast,310,2013-04-18 16:52:00
12:22 PM,39.2,33.8,81,29.79,9.0,WNW,20.7,34.5,N/A,,Overcast,300,2013-04-18 17:22:00
12:52 PM,39.0,34.0,82,29.81,10.0,WNW,17.3,25.3,0.00,,Overcast,300,2013-04-18 17:52:00
1:52 PM,39.9,32.0,73,29.83,10.0,NW,20.7,29.9,N/A,,Overcast,310,2013-04-18 18:52:00
2:52 PM,39.9,32.0,73,29.85,10.0,NW,23.0,31.1,N/A,,Overcast,310,2013-04-18 19:52:00
3:52 PM,39.9,30.9,70,29.86,10.0,WNW,24.2,31.1,N/A,,Overcast,300,2013-04-18 20:52:00
4:52 PM,39.9,30.9,70,29.88,10.0,NW,18.4,25.3,N/A,,Overcast,310,2013-04-18 21:52:00
5:37 PM,41.0,30.2,65,29.89,10.0,WNW,21.9,28.8,N/A,,Overcast,300,2013-04-18 22:37:00
5:52 PM,41.0,30.0,65,29.90,10.0,NW,18.4,28.8,N/A,,Overcast,310,2013-04-18 22:52:00
6:52 PM,39.9,30.0,68,29.92,10.0,WNW,17.3,24.2,N/A,,Overcast,300,2013-04-18 23:52:00
7:52 PM,39.0,28.0,65,29.94,10.0,WNW,17.3,25.3,N/A,,Overcast,300,2013-04-19 00:52:00
8:52 PM,37.9,28.0,68,29.96,10.0,WNW,12.7,-,N/A,,Overcast,290,2013-04-19 01:52:00
9:52 PM,37.9,28.0,68,29.98,10.0,WNW,15.0,-,N/A,,Overcast,290,2013-04-19 02:52:00
10:52 PM,37.0,28.0,70,29.98,10.0,WNW,12.7,-,N/A,,Overcast,300,2013-04-19 03:52:00
11:52 PM,37.0,26.1,65,29.97,10.0,NW,21.9,31.1,N/A,,Overcast,310,2013-04-19 04:52:00